When you browse on this site, cookies collect data to enhance your experience and personalize the content and advertising you see.
Visit our Privacy Policy to learn more. By continuing to use the site, you agree to this use of cookies and data.
  • In Hungary
  • List of Countries
  • For 7 days
  • Water Temperature
  • Satellite Maps
  • Weather Map
  • News
  • Weather Widgets
  • user-avatar
    Login

    Hourly Weather Tenancingo

    Today, 21 February, Thursday

    Time Temperature Precipitation Wind Pressure Humidity
    00:00 +14°C° 0 mm 2 mps 576 mmHg 49%
    01:00 +13°C° 0 mm 2 mps 575 mmHg 51%
    02:00 +13°C° 0 mm 2 mps 575 mmHg 52%
    03:00 +12°C° 0 mm 2 mps 575 mmHg 53%
    04:00 +12°C° 0 mm 1 mps 575 mmHg 54%
    05:00 +11°C° 0 mm 1 mps 575 mmHg 55%
    06:00 +13°C° 0 mm 1 mps 575 mmHg 52%
    07:00 +14°C° 0 mm 2 mps 576 mmHg 48%
    08:00 +15°C° 0 mm 2 mps 577 mmHg 45%
    09:00 +17°C° 0 mm 3 mps 578 mmHg 40%
    10:00 +19°C° 0 mm 4 mps 578 mmHg 34%
    11:00 +21°C° 0 mm 4 mps 579 mmHg 29%
    12:00 +22°C° 0 mm 5 mps 579 mmHg 25%
    13:00 +23°C° 0 mm 5 mps 579 mmHg 22%
    14:00 +24°C° 0 mm 6 mps 579 mmHg 18%
    15:00 +23°C° 0 mm 5 mps 578 mmHg 20%
    16:00 +22°C° 0 mm 5 mps 578 mmHg 21%
    17:00 +21°C° 0 mm 5 mps 577 mmHg 23%
    18:00 +19°C° 0 mm 4 mps 577 mmHg 27%
    19:00 +17°C° 0 mm 2 mps 577 mmHg 31%
    20:00 +16°C° 0 mm 1 mps 577 mmHg 35%
    21:00 +15°C° 0 mm 1 mps 577 mmHg 36%
    22:00 +15°C° 0 mm 1 mps 577 mmHg 38%
    23:00 +14°C° 0 mm 1 mps 577 mmHg 39%

    Tomorrow, 22 February, Friday

    Time Temperature Precipitation Wind Pressure Humidity
    00:00 +13°C° 0 mm 1 mps 576 mmHg 40%
    01:00 +13°C° 0 mm 1 mps 576 mmHg 42%
    02:00 +12°C° 0 mm 1 mps 575 mmHg 43%
    03:00 +12°C° 0 mm 1 mps 575 mmHg 44%
    04:00 +12°C° 0 mm 1 mps 575 mmHg 44%
    05:00 +11°C° 0 mm 1 mps 575 mmHg 44%
    06:00 +13°C° 0 mm 1 mps 576 mmHg 39%
    07:00 +15°C° 0 mm 1 mps 578 mmHg 33%
    08:00 +18°C° 0 mm 1 mps 579 mmHg 28%
    09:00 +20°C° 0 mm 1 mps 580 mmHg 24%
    10:00 +22°C° 0 mm 1 mps 581 mmHg 20%
    11:00 +24°C° 0 mm 2 mps 582 mmHg 16%
    12:00 +25°C° 0 mm 3 mps 581 mmHg 15%
    13:00 +25°C° 0 mm 3 mps 581 mmHg 15%
    14:00 +26°C° 0 mm 4 mps 580 mmHg 14%
    15:00 +25°C° 0 mm 4 mps 580 mmHg 17%
    16:00 +23°C° 0 mm 4 mps 579 mmHg 20%
    17:00 +21°C° 0 mm 4 mps 579 mmHg 23%
    18:00 +20°C° 0 mm 3 mps 579 mmHg 27%
    19:00 +18°C° 0 mm 2 mps 579 mmHg 30%
    20:00 +18°C° 0 mm 1 mps 579 mmHg 34%
    21:00 +16°C° 0 mm 1 mps 579 mmHg 35%
    22:00 +15°C° 0 mm 0 mps 578 mmHg 36%
    23:00 +15°C° 0 mm 0 mps 578 mmHg 37%

    Day after tomorrow, 23 February, Saturday

    Time Temperature Precipitation Wind Pressure Humidity
    00:00 +14°C° 0 mm 0 mps 578 mmHg 40%
    01:00 +13°C° 0 mm 0 mps 577 mmHg 44%
    02:00 +13°C° 0 mm 0 mps 577 mmHg 47%
    03:00 +12°C° 0 mm 0 mps 577 mmHg 49%
    04:00 +12°C° 0 mm 0 mps 577 mmHg 51%
    05:00 +12°C° 0 mm 1 mps 577 mmHg 52%
    06:00 +14°C° 0 mm 1 mps 578 mmHg 49%
    07:00 +14°C° 0 mm 0 mps 579 mmHg 45%
    08:00 +16°C° 0 mm 0 mps 580 mmHg 42%
    09:00 +20°C° 0 mm 1 mps 581 mmHg 38%
    10:00 +22°C° 0 mm 1 mps 581 mmHg 33%
    11:00 +24°C° 0 mm 1 mps 582 mmHg 29%
    12:00 +24°C° 0 mm 2 mps 581 mmHg 28%
    13:00 +25°C° 0 mm 3 mps 581 mmHg 26%
    14:00 +25°C° 0 mm 4 mps 580 mmHg 25%
    15:00 +23°C° 0 mm 4 mps 580 mmHg 27%
    16:00 +22°C° 0 mm 3 mps 580 mmHg 30%
    17:00 +21°C° 0 mm 3 mps 579 mmHg 33%
    18:00 +20°C° 0 mm 3 mps 580 mmHg 36%
    19:00 +19°C° 0 mm 2 mps 580 mmHg 39%
    20:00 +18°C° 0 mm 2 mps 580 mmHg 42%
    21:00 +17°C° 0 mm 2 mps 580 mmHg 46%
    22:00 +16°C° 0 mm 2 mps 580 mmHg 49%
    23:00 +15°C° 0 mm 2 mps 580 mmHg 53%

    24 February, Sunday

    Time Temperature Precipitation Wind Pressure Humidity
    00:00 +15°C° 0 mm 2 mps 579 mmHg 56%
    01:00 +14°C° 0 mm 2 mps 578 mmHg 59%
    02:00 +13°C° 0 mm 2 mps 578 mmHg 62%
    03:00 +13°C° 0 mm 2 mps 578 mmHg 64%
    04:00 +12°C° 0 mm 2 mps 578 mmHg 65%
    05:00 +12°C° 0 mm 2 mps 578 mmHg 67%
    06:00 +13°C° 0 mm 2 mps 579 mmHg 62%
    07:00 +15°C° 0 mm 2 mps 580 mmHg 57%
    08:00 +16°C° 0 mm 2 mps 581 mmHg 53%
    09:00 +18°C° 0 mm 2 mps 582 mmHg 47%
    10:00 +19°C° 0 mm 2 mps 582 mmHg 41%
    11:00 +21°C° 0 mm 2 mps 583 mmHg 36%
    12:00 +23°C° 0 mm 2 mps 582 mmHg 35%
    13:00 +22°C° 0 mm 3 mps 582 mmHg 35%
    14:00 +22°C° 0 mm 3 mps 581 mmHg 34%
    15:00 +21°C° 0.2 mm 3 mps 581 mmHg 38%
    16:00 +20°C° 0.2 mm 2 mps 580 mmHg 43%
    17:00 +19°C° 0.2 mm 2 mps 580 mmHg 47%
    18:00 +18°C° 0.4 mm 2 mps 580 mmHg 53%
    19:00 +17°C° 0.4 mm 2 mps 580 mmHg 59%
    20:00 +17°C° 0.4 mm 3 mps 580 mmHg 65%
    21:00 +16°C° 0.2 mm 3 mps 580 mmHg 67%
    22:00 +16°C° 0.2 mm 2 mps 580 mmHg 70%
    23:00 +15°C° 0.2 mm 2 mps 580 mmHg 72%

    25 February, Monday

    Time Temperature Precipitation Wind Pressure Humidity
    00:00 +14°C° 0 mm 2 mps 579 mmHg 74%
    01:00 +14°C° 0 mm 2 mps 579 mmHg 76%
    02:00 +13°C° 0 mm 1 mps 578 mmHg 78%
    03:00 +13°C° 0 mm 1 mps 578 mmHg 79%
    04:00 +13°C° 0 mm 1 mps 578 mmHg 81%
    05:00 +12°C° 0 mm 1 mps 578 mmHg 82%
    06:00 +14°C° 0 mm 1 mps 579 mmHg 76%
    07:00 +15°C° 0 mm 1 mps 580 mmHg 69%
    08:00 +16°C° 0 mm 1 mps 581 mmHg 63%
    09:00 +19°C° 0.1 mm 1 mps 581 mmHg 55%
    10:00 +20°C° 0.1 mm 2 mps 582 mmHg 47%
    11:00 +23°C° 0.1 mm 2 mps 582 mmHg 40%
    12:00 +23°C° 0.1 mm 2 mps 582 mmHg 37%
    13:00 +24°C° 0.1 mm 3 mps 582 mmHg 34%
    14:00 +23°C° 0.1 mm 4 mps 581 mmHg 32%
    15:00 +23°C° 0.2 mm 4 mps 581 mmHg 33%
    16:00 +22°C° 0.2 mm 4 mps 580 mmHg 35%
    17:00 +21°C° 0.2 mm 4 mps 580 mmHg 36%
    18:00 +19°C° 0 mm 3 mps 580 mmHg 43%
    19:00 +18°C° 0 mm 2 mps 580 mmHg 49%
    20:00 +18°C° 0 mm 1 mps 580 mmHg 55%
    21:00 +16°C° 0 mm 1 mps 580 mmHg 59%
    22:00 +15°C° 0 mm 2 mps 580 mmHg 63%
    23:00 +15°C° 0 mm 2 mps 579 mmHg 66%

    26 February, Tuesday

    Time Temperature Precipitation Wind Pressure Humidity
    00:00 +14°C° 0 mm 2 mps 579 mmHg 68%
    01:00 +14°C° 0 mm 1 mps 579 mmHg 71%
    02:00 +14°C° 0 mm 1 mps 578 mmHg 73%
    03:00 +13°C° 0 mm 1 mps 578 mmHg 73%
    04:00 +13°C° 0 mm 1 mps 578 mmHg 73%
    05:00 +13°C° 0 mm 1 mps 578 mmHg 73%
    06:00 +14°C° 0 mm 1 mps 579 mmHg 65%
    07:00 +16°C° 0 mm 1 mps 580 mmHg 58%
    08:00 +16°C° 0 mm 0 mps 581 mmHg 50%
    09:00 +20°C° 0 mm 1 mps 581 mmHg 43%
    10:00 +22°C° 0 mm 1 mps 582 mmHg 37%
    11:00 +23°C° 0 mm 2 mps 582 mmHg 31%
    12:00 +24°C° 0 mm 2 mps 582 mmHg 29%
    13:00 +25°C° 0 mm 3 mps 581 mmHg 27%
    14:00 +25°C° 0 mm 3 mps 581 mmHg 25%
    15:00 +24°C° 0.1 mm 3 mps 581 mmHg 28%
    16:00 +24°C° 0.1 mm 3 mps 580 mmHg 31%
    17:00 +22°C° 0.1 mm 3 mps 580 mmHg 34%
    18:00 +20°C° 0.6 mm 3 mps 580 mmHg 42%
    19:00 +19°C° 0.6 mm 3 mps 580 mmHg 49%
    20:00 +17°C° 0.6 mm 3 mps 580 mmHg 56%
    21:00 +15°C° 1.5 mm 4 mps 580 mmHg 62%
    22:00 +14°C° 1.5 mm 4 mps 579 mmHg 67%
    23:00 +13°C° 1.5 mm 4 mps 579 mmHg 72%
    Show more